TimeAKST,TemperatureF,Dew PointF,Humidity,Sea Level PressureIn,VisibilityMPH,Wind Direction,Wind SpeedMPH,Gust SpeedMPH,PrecipitationIn,Events,Conditions,WindDirDegrees,DateUTC
12:53 AM,-40.0,-9999,N/A,30.57,10.0,Calm,Calm,-,N/A,,Clear,0,2012-12-20 09:53:00
1:53 AM,-38.9,-9999,N/A,30.59,10.0,Calm,Calm,-,N/A,,Partly Cloudy,0,2012-12-20 10:53:00
2:05 AM,-38.2,-9999,N/A,30.44,10.0,Calm,Calm,-,N/A,,Mostly Cloudy,0,2012-12-20 11:05:00
2:18 AM,-38.2,-9999,N/A,30.45,10.0,Calm,Calm,-,N/A,,Scattered Clouds,0,2012-12-20 11:18:00
3:53 AM,-38.0,-9999,N/A,30.62,10.0,Calm,Calm,-,N/A,,Clear,0,2012-12-20 12:53:00
4:53 AM,-38.0,-9999,N/A,30.64,10.0,Calm,Calm,-,N/A,,Clear,0,2012-12-20 13:53:00
5:53 AM,-40.0,-9999,N/A,30.65,10.0,Calm,Calm,-,N/A,,Clear,0,2012-12-20 14:53:00
6:53 AM,-40.0,-9999,N/A,30.66,10.0,Calm,Calm,-,N/A,,Clear,0,2012-12-20 15:53:00
7:53 AM,-41.1,-9999,N/A,30.67,10.0,Calm,Calm,-,N/A,,Clear,0,2012-12-20 16:53:00
8:53 AM,-42.0,-9999,N/A,30.70,8.0,Calm,Calm,-,N/A,,Clear,0,2012-12-20 17:53:00
9:53 AM,-43.1,-9999,N/A,30.71,10.0,Calm,Calm,-,N/A,,Clear,0,2012-12-20 18:53:00
10:53 AM,-43.1,-9999,N/A,30.74,10.0,Calm,Calm,-,N/A,,Clear,0,2012-12-20 19:53:00
11:53 AM,-43.1,-9999,N/A,30.76,7.0,Calm,Calm,-,N/A,,Clear,0,2012-12-20 20:53:00
12:53 PM,-42.0,-9999,N/A,30.77,7.0,Calm,Calm,-,N/A,,Clear,0,2012-12-20 21:53:00
1:53 PM,-43.1,-9999,N/A,30.78,10.0,Calm,Calm,-,N/A,,Clear,0,2012-12-20 22:53:00
2:53 PM,-45.0,-9999,N/A,30.79,6.0,Calm,Calm,-,N/A,,Haze,0,2012-12-20 23:53:00
3:53 PM,-45.0,-9999,N/A,30.80,8.0,Calm,Calm,-,N/A,,Clear,0,2012-12-21 00:53:00
4:53 PM,-45.9,-9999,N/A,30.81,10.0,Calm,Calm,-,N/A,,Clear,0,2012-12-21 01:53:00
5:53 PM,-47.0,-9999,N/A,30.82,10.0,Calm,Calm,-,N/A,,Clear,0,2012-12-21 02:53:00
6:53 PM,-47.0,-9999,N/A,30.83,7.0,Calm,Calm,-,N/A,,Clear,0,2012-12-21 03:53:00
7:53 PM,-47.9,-9999,N/A,30.83,9.0,Calm,Calm,-,N/A,,Clear,0,2012-12-21 04:53:00
8:25 PM,-47.2,-9999,N/A,30.68,9.0,Calm,Calm,-,N/A,,Scattered Clouds,0,2012-12-21 05:25:00
8:53 PM,-47.9,-9999,N/A,30.84,6.0,Calm,Calm,-,N/A,,Haze,0,2012-12-21 05:53:00
9:53 PM,-47.9,-9999,N/A,30.84,7.0,Calm,Calm,-,N/A,,Clear,0,2012-12-21 06:53:00
10:53 PM,-49.0,-9999,N/A,30.85,5.0,Calm,Calm,-,N/A,,Haze,0,2012-12-21 07:53:00
11:53 PM,-49.0,-9999,N/A,30.86,7.0,Calm,Calm,-,N/A,,Clear,0,2012-12-21 08:53:00